Weather History for KPRC - July, 2013

Change the Weather History Date:

Tuesday, July 16, 2013

  Actual Average Record
Temperature  
Mean Temperature 72 °F 76 °F  
Max Temperature 81 °F 90 °F 101 °F (1961)
Min Temperature 63 °F 62 °F 55 °F (2011)
Degree Days  
Heating Degree Days 0    
Month to date heating degree days 0  
Since 1 July heating degree days 0  
Cooling Degree Days 7    
Month to date cooling degree days 221  
Year to date cooling degree days 580  
Growing Degree Days 22 (Base 50)    
Moisture  
Dew Point 59 °F    
Average Humidity 70    
Maximum Humidity 93    
Minimum Humidity 45    
Precipitation  
Precipitation 0.04 in 0.07 in 1.15 in (1972)
Month to date precipitation 0.27 0.84  
Year to date precipitation 2.79 5.77  
Sea Level Pressure  
Sea Level Pressure 29.95 in    
Wind  
Wind Speed 5 mph (SSW)    
Max Wind Speed 24 mph    
Max Gust Speed 31 mph    
Visibility 10 miles    
Events Rain , Thunderstorm    
T = Trace of Precipitation, MM = Missing Value Source: NWS Daily Summary

Daily Weather History Graph

Daily Weather History Graph

Search for Another Location

Airport or City:

Trip Planner

Search our weather history database for the weather conditions in past years. The results will help you decide how hot, cold, wet, or windy it might be!

Date:

Astronomy

Jul. 16, 2013 Rise Set
Actual Time 5:28 AM MST 7:42 PM MST
Civil Twilight 5:00 AM MST 8:11 PM MST
Nautical Twilight 4:24 AM MST 8:46 PM MST
Astronomical Twilight 3:46 AM MST 9:24 PM MST
Moon 1:33 PM MST (7/16) No Moon Set
Length of Visible Light 15h 11m
Length of Day
14h 13m
First Quarter, 57% of the Moon is Illuminated
Jul 16
First Quarter
Jul 22
Full
Jul 29
Last Quarter
Aug 6
New
Aug 14
First Quarter

Hourly Weather History & Observations

Time (MST) Temp. Heat Index Dew Point Humidity Pressure Visibility Wind Dir Wind Speed Gust Speed Precip Events Conditions
12:53 AM 64.0 °F - 57.9 °F 80% 29.86 in 10.0 mi Calm Calm - N/A   Clear
1:53 AM 64.0 °F - 57.9 °F 80% 29.87 in 10.0 mi Calm Calm - N/A   Partly Cloudy
2:53 AM 64.0 °F - 57.9 °F 80% 29.88 in 10.0 mi Calm Calm - N/A   Overcast
3:53 AM 64.9 °F - 59.0 °F 81% 29.88 in 10.0 mi WSW 3.5 mph - N/A   Mostly Cloudy
4:53 AM 64.9 °F - 57.9 °F 78% 29.89 in 10.0 mi Calm Calm - N/A   Partly Cloudy
5:53 AM 63.0 °F - 57.0 °F 81% 29.91 in 10.0 mi Calm Calm - N/A   Clear
6:53 AM 66.9 °F - 57.9 °F 73% 29.94 in 10.0 mi Calm Calm - N/A   Clear
7:53 AM 70.0 °F - 57.0 °F 63% 29.95 in 10.0 mi SE 4.6 mph - N/A   Scattered Clouds
8:53 AM 72.0 °F - 59.0 °F 64% 29.95 in 10.0 mi ESE 4.6 mph - N/A   Clear
9:53 AM 75.9 °F - 57.0 °F 52% 29.94 in 10.0 mi Calm Calm - N/A   Mostly Cloudy
10:53 AM 79.0 °F - 57.9 °F 48% 29.92 in 10.0 mi Calm Calm - N/A   Mostly Cloudy
11:53 AM 81.0 °F 81.1 °F 57.9 °F 45% 29.92 in 10.0 mi Variable 4.6 mph - N/A   Mostly Cloudy
12:20 PM 80.6 °F 80.8 °F 57.2 °F 45% 30.16 in 10.0 mi East 6.9 mph - N/A Thunderstorm Thunderstorm
12:53 PM 73.9 °F - 57.9 °F 57% 29.94 in 10.0 mi South 10.4 mph - N/A Thunderstorm Thunderstorm
1:53 PM 80.1 °F 80.6 °F 57.9 °F 47% 29.91 in 10.0 mi SW 12.7 mph - N/A Thunderstorm Thunderstorm
2:53 PM 73.9 °F - 61.0 °F 64% 29.94 in 10.0 mi SSW 9.2 mph - N/A   Mostly Cloudy
3:53 PM 75.0 °F - 59.0 °F 57% 29.92 in 10.0 mi SSW 11.5 mph - N/A   Mostly Cloudy
4:53 PM 73.9 °F - 55.9 °F 53% 29.95 in 10.0 mi North 15.0 mph - N/A   Mostly Cloudy
5:53 PM 66.9 °F - 60.1 °F 79% 29.99 in 10.0 mi NNE 12.7 mph - N/A   Mostly Cloudy
6:53 PM 64.9 °F - 62.1 °F 90% 30.01 in 7.0 mi North 5.8 mph - 0.00 in Rain Light Rain
7:53 PM 64.9 °F - 62.1 °F 90% 30.00 in 8.0 mi Calm Calm - 0.04 in Rain Light Rain
8:53 PM 66.0 °F - 61.0 °F 84% 30.01 in 10.0 mi SSW 5.8 mph - 0.00 in Rain Light Rain
9:53 PM 64.9 °F - 61.0 °F 87% 30.01 in 10.0 mi SSW 5.8 mph - 0.00 in   Overcast
10:53 PM 64.9 °F - 62.1 °F 90% 30.01 in 10.0 mi SSW 3.5 mph - 0.00 in Rain Light Rain
11:53 PM 64.9 °F - 61.0 °F 87% 29.98 in 10.0 mi SSW 8.1 mph - 0.00 in   Overcast